Zurück zum Katalog

STARLINK-4633

AktivKommunikationVLEO
NORAD 53964·PAYLOAD·🇺🇸 United States

Gestartet Oct 5, 2022 von Vandenberg Space Force Base

Loading…

Nächste Überflüge (nächste 24 Stunden)

TLE

AktuellSource: CelesTrak SupGP

Epoche: Sep 15, 2026, 02:53 UTC

1 53964C 22125A   26258.12062500 -.00029729  00000+0 -87831-3 0  2586
2 53964  53.1583  86.6868 0001153  81.9756 195.9643 15.34406645    18

Verfolge STARLINK-4633 in Echtzeit mit AllMySat

Download on the App Store